Data for 10/02/2017

Time Sea-Level Adjusted Pressure Absolute Pressure Temperature Relative Humidity Dew Point   
(mb) (inHg) (mb) (inHg) (C) (F) (%) (C) (F)
00:05 1016 30 845 24.95 2.8 37.1 86 0.8 33.4
00:10 1016 30 845 24.95 2.9 37.2 86 0.9 33.5
00:15 1016 30 845 24.95 2.9 37.3 86 0.9 33.6
00:20 1016 30 845 24.95 2.9 37.2 86 0.9 33.5
00:25 1016 30 845 24.95 2.9 37.3 86 0.9 33.5
00:30 1016 30 845 24.95 2.9 37.3 86 0.8 33.5
00:35 1016 30 845 24.95 2.9 37.2 87 0.9 33.6
00:40 1016 30 845 24.95 2.9 37.2 87 0.9 33.6
00:45 1016 30 845 24.95 2.9 37.3 86 0.9 33.6
00:50 1016 30 845 24.95 2.9 37.2 86 0.8 33.5
00:55 1016 30 845 24.95 2.9 37.2 86 0.8 33.5
01:00 1016 30 845 24.95 2.9 37.2 87 0.9 33.6
01:05 1016 30 845 24.95 3 37.4 86 0.9 33.6
01:10 1016 30 845 24.95 3 37.4 86 0.9 33.6
01:15 1016 30 845 24.95 3 37.4 86 0.8 33.4
01:20 1016 30 845 24.95 2.9 37.2 86 0.7 33.3
01:25 1016 30 845 24.95 2.8 37.1 86 0.7 33.3
01:30 1016 30 845 24.95 2.8 37 86 0.7 33.3
01:35 1016 30 845 24.95 2.8 37.1 86 0.8 33.4
01:40 1016 30 845 24.95 2.9 37.2 86 0.7 33.3
01:45 1016 30 845 24.95 2.8 37 86 0.7 33.2
01:50 1016 30 845 24.95 2.7 36.9 87 0.7 33.2
01:55 1016 30 845 24.95 2.7 36.9 86 0.7 33.2
02:00 1016 30 845 24.95 2.7 36.9 86 0.7 33.2
02:05 1016 30 845 24.95 2.8 37 86 0.8 33.4
02:10 1016 30 845 24.95 2.9 37.1 86 0.7 33.2
02:15 1016 30 845 24.95 2.7 36.9 87 0.7 33.2
02:20 1016 30 845 24.95 2.7 36.9 86 0.7 33.2
02:25 1016 30 845 24.95 2.7 36.9 86 0.6 33.1
02:30 1016 30 845 24.95 2.8 37 86 0.6 33.1
02:35 1016 30 845 24.95 2.8 37 86 0.6 33.1
02:40 1016 30 845 24.95 2.8 37.1 85 0.6 33.2
02:45 1016 30 845 24.95 2.9 37.1 85 0.6 33.1
02:50 1016 30 845 24.95 2.8 37.1 85 0.6 33.2
02:55 1016 30 845 24.95 2.8 37.1 85 0.6 33.1
03:00 1016 30 845 24.95 2.9 37.2 85 0.5 33
03:05 1016 30 845 24.95 2.8 37.1 85 0.6 33.1
03:10 1016 30 845 24.95 2.9 37.1 85 0.5 32.9
03:15 1016 30 845 24.95 2.8 37 85 0.5 32.9
03:20 1016 30 845 24.95 2.8 37 85 0.5 32.9
03:25 1016 30 845 24.95 2.7 36.9 86 0.6 33.1
03:30 1016 30 845 24.95 2.7 36.9 86 0.6 33.1
03:35 1016 30 845 24.95 2.7 36.9 86 0.6 33
03:40 1016 30 845 24.95 2.7 36.8 86 0.5 33
03:45 1016 30 845 24.95 2.6 36.7 86 0.6 33
03:50 1016 30 845 24.95 2.6 36.7 86 0.5 33
03:55 1016 30 845 24.95 2.6 36.7 86 0.5 32.9
04:00 1016 30 845 24.95 2.7 36.8 86 0.5 32.9
04:05 1016 30 845 24.95 2.6 36.8 86 0.5 32.8
04:10 1016 30 845 24.95 2.6 36.6 86 0.5 32.9
04:15 1016 30 845 24.95 2.6 36.7 86 0.5 32.9
04:20 1016 30 845 24.95 2.7 36.8 86 0.5 32.9
04:25 1016 30 845 24.95 2.6 36.7 86 0.6 33
04:30 1016 30 845 24.95 2.6 36.8 86 0.6 33.1
04:35 1016 30 845 24.95 2.6 36.8 86 0.6 33.1
04:40 1016 30 845 24.95 2.7 36.8 86 0.6 33.1
04:45 1016 30 845 24.95 2.7 36.8 86 0.6 33
04:50 1016 30 845 24.95 2.7 36.9 86 0.6 33.1
04:55 1016 30 845 24.95 2.7 36.9 86 0.6 33
05:00 1016 30 845 24.95 2.7 36.8 86 0.5 33
05:05 1016 30 845 24.95 2.6 36.7 86 0.5 32.9
05:10 1016 30 845 24.95 2.6 36.7 86 0.6 33.1
05:15 1016 30 845 24.95 2.7 36.8 86 0.6 33.1
05:20 1016 30 845 24.95 2.7 36.9 86 0.6 33.1
05:25 1016 30 845 24.95 2.8 37 86 0.6 33.1
05:30 1016 30 845 24.95 2.8 37 86 0.6 33.1
05:35 1016 30 845 24.95 2.7 36.9 86 0.6 33
05:40 1016 30 845 24.95 2.7 36.9 86 0.6 33
05:45 1016 30 845 24.95 2.7 36.8 86 0.6 33.1
05:50 1016 30 845 24.95 2.7 36.8 86 0.6 33
05:55 1016 30 845 24.95 2.6 36.6 86 0.5 32.9
06:00 1016 30 845 24.95 2.5 36.6 86 0.5 32.9
06:05 1016 30 845 24.95 2.6 36.6 87 0.6 33
06:10 1016 30 845 24.95 2.6 36.7 86 0.5 33
06:15 1016 30 845 24.95 2.6 36.7 86 0.5 32.8
06:20 1016 30 845 24.95 2.6 36.7 86 0.5 32.8
06:25 1016 30 845 24.95 2.6 36.7 86 0.5 32.8
06:30 1016 30 845 24.95 2.7 36.8 86 0.5 32.9
06:35 1016 30 845 24.95 2.6 36.7 85 0.4 32.6
06:40 1016 30 845 24.95 2.6 36.7 86 0.4 32.7
06:45 1016 30 845 24.95 2.6 36.8 85 0.4 32.7
06:50 1016 30 845 24.95 2.6 36.8 85 0.4 32.7
06:55 1016 30 846 24.98 2.6 36.7 85 0.4 32.8
07:00 1016 30 846 24.98 2.6 36.7 85 0.4 32.7
07:05 1016 30 846 24.98 2.6 36.6 85 0.3 32.6
07:10 1016 30 846 24.98 2.6 36.7 85 0.4 32.6
07:15 1016 30 846 24.98 2.6 36.7 85 0.4 32.7
07:20 1016 30 846 24.98 2.6 36.7 86 0.4 32.8
07:25 1016 30 846 24.98 2.6 36.8 86 0.5 32.8
07:30 1017 30.03 846 24.98 2.7 36.8 86 0.5 32.9
07:35 1017 30.03 846 24.98 2.7 36.9 85 0.5 32.8
07:40 1017 30.03 846 24.98 2.7 36.8 86 0.5 33
07:45 1017 30.03 846 24.98 2.7 36.9 86 0.5 33
07:50 1017 30.03 846 24.98 2.6 36.7 86 0.4 32.8
07:55 1017 30.03 846 24.98 2.6 36.7 85 0.3 32.5
08:00 1017 30.03 846 24.98 2.5 36.6 84 0.1 32.2
08:05 1017 30.03 846 24.98 2.5 36.5 83 -0.1 31.9
08:10 1017 30.03 846 24.98 2.4 36.4 83 -0.1 31.8
08:15 1017 30.03 846 24.98 2.4 36.4 82 -0.3 31.5
08:20 1017 30.03 846 24.98 2.5 36.5 81 -0.4 31.2
08:25 1017 30.03 846 24.98 2.5 36.6 80 -0.5 31
08:30 1017 30.03 846 24.98 2.6 36.7 79 -0.6 30.9
08:35 1017 30.03 846 24.98 2.6 36.6 80 -0.6 30.9
08:40 1017 30.03 846 24.98 2.5 36.6 81 -0.4 31.3
08:45 1017 30.03 846 24.98 2.5 36.5 81 -0.3 31.4
08:50 1017 30.03 846 24.98 2.6 36.7 82 -0.2 31.7
08:55 1017 30.03 846 24.98 2.8 37 80 -0.3 31.5
09:00 1017 30.03 846 24.98 2.9 37.2 80 -0.2 31.6
09:05 1017 30.03 846 24.98 3 37.3 77 -0.7 30.7
09:10 1017 30.03 846 24.98 3 37.4 74 -1.2 29.8
09:15 1017 30.03 846 24.98 3.1 37.6 72 -1.4 29.4
09:20 1017 30.03 846 24.98 3.1 37.6 72 -1.4 29.4
09:25 1017 30.03 846 24.98 3.2 37.8 70 -1.7 29
09:30 1017 30.03 846 24.98 3.4 38.1 68 -2 28.4
09:35 1017 30.03 846 24.98 3.5 38.3 66 -2.2 28
09:40 1017 30.03 846 24.98 3.6 38.5 67 -1.9 28.6
09:45 1017 30.03 847 25.01 3.7 38.7 65 -2.2 28
09:50 1017 30.03 847 25.01 3.8 38.8 64 -2.4 27.7
09:55 1017 30.03 847 25.01 3.8 38.8 63 -2.6 27.3
10:00 1017 30.03 847 25.01 3.7 38.6 63 -2.7 27.1
10:05 1017 30.03 847 25.01 3.6 38.4 63 -2.8 27
10:10 1017 30.03 847 25.01 3.7 38.6 62 -2.9 26.8
10:15 1017 30.03 847 25.01 3.7 38.7 63 -2.5 27.4
10:20 1017 30.03 847 25.01 3.8 38.8 63 -2.5 27.4
10:25 1017 30.03 847 25.01 3.8 38.8 61 -3.1 26.4
10:30 1017 30.03 847 25.01 3.7 38.7 59 -3.5 25.8
10:35 1017 30.03 847 25.01 3.9 39.1 59 -3.3 26
10:40 1017 30.03 847 25.01 4.1 39.4 60 -2.9 26.7
10:45 1017 30.03 847 25.01 4.5 40 58 -3 26.7
10:50 1017 30.03 847 25.01 4.7 40.5 57 -3.2 26.2
10:55 1017 30.03 847 25.01 4.9 40.8 58 -2.7 27.2
11:00 1017 30.03 847 25.01 4.6 40.3 55 -3.6 25.6
11:05 1017 30.03 847 25.01 4.3 39.7 57 -3.5 25.8
11:10 1017 30.03 847 25.01 4.3 39.8 56 -3.7 25.4
11:15 1017 30.03 847 25.01 4.3 39.7 56 -3.7 25.3
11:20 1017 30.03 847 25.01 4.4 39.8 53 -4.4 24
11:25 1017 30.03 847 25.01 4.6 40.2 52 -4.5 23.9
11:30 1017 30.03 847 25.01 4.8 40.6 51 -4.5 23.8
11:35 1017 30.03 847 25.01 4.9 40.8 49 -5 23.1
11:40 1017 30.03 847 25.01 4.8 40.6 49 -4.9 23.1
11:45 1017 30.03 847 25.01 4.6 40.3 51 -4.6 23.8
11:50 1017 30.03 847 25.01 4.8 40.6 51 -4.4 24.1
11:55 1017 30.03 847 25.01 4.6 40.3 53 -4.2 24.5
12:00 1017 30.03 847 25.01 4.6 40.3 51 -4.7 23.6
12:05 1017 30.03 847 25.01 4.7 40.4 51 -4.6 23.7
12:10 1017 30.03 847 25.01 4.5 40.1 52 -4.4 24
12:15 1017 30.03 847 25.01 4.5 40.2 51 -4.8 23.4
12:20 1017 30.03 846 24.98 4.5 40 50 -5 23.1
12:25 1017 30.03 847 25.01 4.4 39.9 52 -4.7 23.6
12:30 1017 30.03 847 25.01 4.4 40 52 -4.5 23.9
12:35 1017 30.03 846 24.98 4.4 39.8 55 -4 24.9
12:40 1017 30.03 846 24.98 4.4 39.9 54 -4.1 24.6
12:45 1017 30.03 846 24.98 4.6 40.3 52 -4.3 24.3
12:50 1017 30.03 846 24.98 4.5 40.1 53 -4.3 24.3
12:55 1017 30.03 846 24.98 4.6 40.3 53 -4.1 24.7
13:00 1017 30.03 846 24.98 4.7 40.5 52 -4.4 24.1
13:05 1017 30.03 846 24.98 4.8 40.7 53 -4.1 24.7
13:10 1017 30.03 846 24.98 5.1 41.1 52 -4 24.9
13:15 1017 30.03 846 24.98 5.2 41.3 51 -4.1 24.6
13:20 1017 30.03 846 24.98 5.2 41.4 50 -4.4 24.1
13:25 1017 30.03 846 24.98 5.4 41.7 51 -4 24.7
13:30 1017 30.03 846 24.98 5.3 41.6 51 -4.1 24.6
13:35 1017 30.03 846 24.98 5.1 41.2 53 -3.7 25.3
13:40 1017 30.03 846 24.98 4.9 40.8 52 -4 24.8
13:45 1017 30.03 846 24.98 4.9 40.8 53 -3.9 24.9
13:50 1017 30.03 846 24.98 5 41 52 -4.1 24.7
13:55 1017 30.03 846 24.98 4.8 40.6 54 -3.8 25.1
14:00 1017 30.03 846 24.98 4.6 40.4 54 -3.8 25.1
14:05 1017 30.03 846 24.98 4.6 40.2 55 -3.6 25.5
14:10 1017 30.03 846 24.98 4.7 40.4 55 -3.6 25.4
14:15 1017 30.03 847 25.01 4.6 40.2 54 -3.9 24.9
14:20 1017 30.03 847 25.01 4.7 40.4 52 -4.4 24.1
14:25 1017 30.03 847 25.01 4.7 40.4 52 -4.4 24
14:30 1017 30.03 847 25.01 4.6 40.3 52 -4.3 24.3
14:35 1017 30.03 847 25.01 4.7 40.4 52 -4.3 24.3
14:40 1017 30.03 847 25.01 4.8 40.6 52 -4.4 24.2
14:45 1017 30.03 847 25.01 4.7 40.4 54 -3.9 24.9
14:50 1018 30.06 847 25.01 4.6 40.2 55 -3.7 25.3
14:55 1018 30.06 847 25.01 4.5 40.1 55 -3.8 25.1
15:00 1018 30.06 847 25.01 4.5 40.2 54 -3.9 25
15:05 1018 30.06 847 25.01 4.6 40.3 52 -4.4 24
15:10 1018 30.06 847 25.01 4.6 40.2 50 -4.9 23.2
15:15 1018 30.06 847 25.01 4.5 40.1 52 -4.6 23.7
15:20 1018 30.06 847 25.01 4.7 40.5 52 -4.3 24.2
15:25 1018 30.06 847 25.01 4.8 40.7 51 -4.3 24.2
15:30 1018 30.06 847 25.01 4.8 40.6 52 -4.3 24.2
15:35 1018 30.06 847 25.01 5 41 51 -4.4 24.2
15:40 1018 30.06 847 25.01 5 41 49 -4.8 23.3
15:45 1018 30.06 847 25.01 4.8 40.7 49 -5 22.9
15:50 1018 30.06 847 25.01 5 41 48 -5.2 22.7
15:55 1018 30.06 847 25.01 4.8 40.6 49 -5.1 22.9
16:00 1018 30.06 847 25.01 4.5 40.2 49 -5.3 22.5
16:05 1018 30.06 847 25.01 4.4 39.8 48 -5.6 22
16:10 1018 30.06 847 25.01 4.5 40.1 49 -5.2 22.6
16:15 1018 30.06 847 25.01 4.6 40.2 49 -5.2 22.6
16:20 1018 30.06 847 25.01 4.9 40.7 48 -5.3 22.4
16:25 1018 30.06 847 25.01 5.1 41.2 47 -5.3 22.5
16:30 1018 30.06 847 25.01 4.8 40.7 47 -5.5 22.1
16:35 1018 30.06 847 25.01 4.8 40.6 47 -5.5 22.1
16:40 1018 30.06 847 25.01 4.6 40.2 48 -5.6 21.9
16:45 1018 30.06 847 25.01 4.5 40.2 48 -5.7 21.8
16:50 1018 30.06 847 25.01 4.3 39.8 48 -5.8 21.6
16:55 1018 30.06 847 25.01 4.2 39.5 48 -5.8 21.6
17:00 1018 30.06 847 25.01 4.1 39.4 50 -5.3 22.4
17:05 1018 30.06 848 25.04 4.1 39.4 50 -5.5 22.2
17:10 1018 30.06 848 25.04 4 39.2 51 -5.1 22.8
17:15 1018 30.06 848 25.04 3.9 39 51 -5.3 22.5
17:20 1018 30.06 848 25.04 3.8 38.8 52 -5.2 22.6
17:25 1019 30.09 848 25.04 3.6 38.4 53 -5.1 22.8
17:30 1019 30.09 848 25.04 3.5 38.4 53 -5.1 22.8
17:35 1019 30.09 848 25.04 3.5 38.3 54 -5 23
17:40 1019 30.09 848 25.04 3.5 38.2 56 -4.6 23.7
17:45 1019 30.09 848 25.04 3.2 37.7 57 -4.6 23.7
17:50 1019 30.09 848 25.04 3.1 37.6 58 -4.4 24
17:55 1019 30.09 848 25.04 3 37.4 59 -4.2 24.4
18:00 1019 30.09 848 25.04 2.9 37.1 60 -4 24.7
18:05 1019 30.09 848 25.04 2.6 36.8 62 -3.9 25
18:10 1019 30.09 848 25.04 2.5 36.5 64 -3.6 25.6
18:15 1019 30.09 848 25.04 2.4 36.3 66 -3.4 25.9
18:20 1019 30.09 848 25.04 2.1 35.7 66 -3.6 25.4
18:25 1019 30.09 848 25.04 1.7 35.1 66 -3.9 24.9
18:30 1019 30.09 848 25.04 1.5 34.8 67 -3.9 25
18:35 1019 30.09 849 25.07 1.3 34.3 68 -3.9 24.9
18:40 1019 30.09 849 25.07 1.2 34.2 68 -4 24.8
18:45 1019 30.09 849 25.07 1.2 34.1 68 -4.1 24.6
18:50 1020 30.12 849 25.07 0.9 33.6 69 -4.1 24.6
18:55 1020 30.12 849 25.07 0.8 33.5 69 -4.1 24.5
19:00 1020 30.12 849 25.07 0.8 33.5 70 -4 24.7
19:05 1020 30.12 849 25.07 0.9 33.6 68 -4.3 24.2
19:10 1020 30.12 849 25.07 0.8 33.5 67 -4.5 23.8
19:15 1020 30.12 849 25.07 0.8 33.4 67 -4.6 23.8
19:20 1020 30.12 849 25.07 0.7 33.3 67 -4.7 23.5
19:25 1020 30.12 849 25.07 0.7 33.2 66 -5 23
19:30 1020 30.12 849 25.07 0.7 33.2 63 -5.6 22
19:35 1020 30.12 849 25.07 0.7 33.3 64 -5.4 22.2
19:40 1020 30.12 849 25.07 0.8 33.4 63 -5.4 22.2
19:45 1020 30.12 849 25.07 0.6 33.1 65 -5.2 22.6
19:50 1020 30.12 849 25.07 0.5 32.8 66 -5.1 22.9
19:55 1020 30.12 850 25.1 0.3 32.5 68 -4.9 23.2
20:00 1020 30.12 850 25.1 0.2 32.3 70 -4.7 23.5
20:05 1020 30.12 850 25.1 0 32.1 70 -4.9 23.2
20:10 1021 30.15 850 25.1 -0.2 31.7 70 -5 23.1
20:15 1021 30.15 850 25.1 -0.3 31.4 72 -4.8 23.4
20:20 1021 30.15 850 25.1 -0.5 31.2 75 -4.4 24
20:25 1021 30.15 850 25.1 -0.6 30.9 76 -4.4 24.1
20:30 1021 30.15 850 25.1 -0.7 30.8 77 -4.2 24.5
20:35 1021 30.15 850 25.1 -0.7 30.8 76 -4.4 24
20:40 1021 30.15 850 25.1 -0.7 30.7 76 -4.5 24
20:45 1021 30.15 850 25.1 -0.8 30.5 77 -4.5 24
20:50 1021 30.15 850 25.1 -1 30.3 77 -4.6 23.8
20:55 1021 30.15 850 25.1 -1.1 30 78 -4.4 24.1
21:00 1021 30.15 850 25.1 -1.3 29.7 81 -4.2 24.4
21:05 1021 30.15 850 25.1 -1.5 29.4 84 -3.9 25
21:10 1021 30.15 850 25.1 -1.5 29.4 85 -3.6 25.5
21:15 1021 30.15 851 25.13 -1.5 29.4 86 -3.5 25.7
21:20 1021 30.15 851 25.13 -1.4 29.4 86 -3.4 25.8
21:25 1021 30.15 851 25.13 -1.4 29.5 87 -3.3 26
21:30 1021 30.15 851 25.13 -1.5 29.4 88 -3.2 26.2
21:35 1022 30.18 851 25.13 -1.5 29.3 88 -3.2 26.2
21:40 1022 30.18 851 25.13 -1.5 29.2 88 -3.2 26.2
21:45 1022 30.18 851 25.13 -1.6 29.2 88 -3.2 26.2
21:50 1022 30.18 851 25.13 -1.7 28.9 89 -3.4 26
21:55 1022 30.18 851 25.13 -1.8 28.8 90 -3.3 26.1
22:00 1022 30.18 851 25.13 -1.8 28.7 87 -3.7 25.3
22:05 1022 30.18 851 25.13 -1.9 28.6 88 -3.7 25.3
22:10 1022 30.18 851 25.13 -1.9 28.5 88 -3.7 25.4
22:15 1022 30.18 851 25.13 -2 28.3 88 -3.8 25.2
22:20 1022 30.18 851 25.13 -2 28.3 88 -3.7 25.3
22:25 1022 30.18 851 25.13 -2.1 28.2 88 -3.8 25.1
22:30 1022 30.18 851 25.13 -2.2 28 88 -4 24.8
22:35 1022 30.18 852 25.16 -2.2 28 88 -4 24.8
22:40 1022 30.18 852 25.16 -2.3 27.9 86 -4.3 24.3
22:45 1022 30.18 852 25.16 -2.5 27.5 86 -4.5 24
22:50 1022 30.18 852 25.16 -2.6 27.4 86 -4.5 23.8
22:55 1022 30.18 852 25.16 -2.6 27.3 86 -4.7 23.6
23:00 1022 30.18 852 25.16 -2.7 27.2 86 -4.7 23.5
23:05 1022 30.18 852 25.16 -2.7 27.2 86 -4.7 23.5
23:10 1022 30.18 852 25.16 -2.7 27.2 86 -4.7 23.6
23:15 1022 30.18 852 25.16 -2.7 27.2 87 -4.5 23.9
23:20 1023 30.21 852 25.16 -2.7 27.2 88 -4.4 24.1
23:25 1023 30.21 852 25.16 -2.7 27.1 89 -4.3 24.2
23:30 1023 30.21 852 25.16 -2.7 27.2 89 -4.2 24.5
23:35 1023 30.21 852 25.16 -2.7 27.2 89 -4.3 24.3
23:40 1023 30.21 852 25.16 -2.7 27.1 89 -4.2 24.4
23:45 1023 30.21 852 25.16 -2.7 27.1 90 -4.2 24.4
23:50 1023 30.21 852 25.16 -2.8 27 89 -4.3 24.3
23:55 1023 30.21 852 25.16 -2.8 26.9 90 -4.3 24.3
24:00 1023 30.21 852 25.16 -2.8 26.9 90 -4.3 24.3